CAPE
0 0 0 0 0 0 0 0 0 0 0 614 651 902 836 1067 1196 668 1068 1294 1281 1400 1583 1777 2118 2444 2464 2520 2600 2591 2620 2578 2498 2389 2341 2312 2241 2235 2109 1256 1971 1651 1417 1133 1121 763 639 553 307
0 0 0 0 0 0 0 0 0 0 38 753 1034 981 769 1234 1307 1317 1332 1321 1389 1450 1521 1699 2113 2340 2438 2257 2460 2577 2592 2479 2408 2297 2143 1784 1567 1642 1416 1145 1178 981 981 944 627 273 142 54 12
0 0 0 0 0 0 0 0 0 0 0 28 806 1076 940 902 1404 1224 1625 1406 1450 1460 1494 1712 1952 2136 2312 2129 2470 2527 2377 2129 1915 1586 1733 1772 1560 1374 1164 978 701 663 536 256 139 61 10 0 0
0 0 0 0 0 0 0 0 0 0 0 0 793 922 825 927 1422 1435 1702 1283 1560 1184 1512 1656 1762 1964 2290 2494 2516 2202 1939 1796 1753 1691 1448 1294 1212 1032 736 538 406 313 217 75 0 0 0 0 0
0 0 0 0 0 0 0 0 0 0 0 254 811 576 702 888 1160 1557 1553 1714 1474 1537 1503 1567 1642 1700 2030 2346 2167 1869 1634 1511 1528 1276 1001 840 717 495 507 456 329 171 16 0 0 0 0 0 0
0 0 0 0 0 0 0 0 0 0 0 504 738 671 708 933 1132 1380 1518 1650 1816 1369 1371 1426 1548 1476 1508 1508 1323 1324 1244 1113 944 726 561 424 486 464 414 327 119 0 0 0 0 0 0 0 0
0 0 0 0 0 0 0 0 0 0 340 744 883 773 737 701 1007 1246 1696 1309 1524 1205 1272 1195 1141 1110 1101 1007 982 924 914 680 553 376 321 456 412 392 267 71 0 0 0 0 2 0 0 0 0
0 0 0 0 0 0 0 0 0 0 190 647 882 914 708 784 942 1213 1406 1308 1460 1640 1364 1167 1009 1045 789 1214 818 744 696 474 423 402 433 515 410 256 70 0 0 5 0 0 0 0 0 0 0
0 0 0 0 0 0 0 0 0 5 256 757 822 894 802 766 823 1110 1232 1219 1196 1234 1208 1189 1006 827 750 883 519 478 490 692 560 506 467 412 278 154 16 0 1 36 8 6 0 0 0 0 0
0 0 0 0 0 0 0 0 0 0 18 508 693 549 653 649 697 942 1174 1067 1077 1103 1068 1005 960 812 802 566 848 787 830 751 528 502 466 415 319 179 45 1 41 12 0 0 0 0 0 0 0
0 0 0 0 0 0 0 0 0 0 0 0 0 11 151 609 563 844 865 926 1034 939 963 850 1023 707 716 781 1124 802 737 546 581 577 563 492 341 200 142 166 9 0 0 0 0 0 0 0 0
0 0 0 0 0 0 0 0 0 0 0 0 0 0 0 316 480 571 599 662 1155 790 759 979 912 822 718 429 484 573 626 671 638 455 478 476 427 223 147 222 3 0 0 0 0 0 0 0 0
0 0 0 0 0 0 0 0 0 0 0 0 0 0 0 14 412 419 554 625 1040 783 647 794 708 572 703 492 737 756 655 687 558 473 399 381 261 252 154 25 0 0 0 0 0 0 0 0 0
0 0 0 0 0 0 0 0 0 0 0 0 0 0 0 1 251 250 358 820 1130 920 813 754 510 487 583 686 745 732 675 501 463 521 379 324 235 144 34 0 0 0 0 0 0 0 0 0 0
0 0 0 0 0 0 0 0 0 0 0 0 0 0 0 0 12 114 187 514 851 852 840 685 631 422 645 533 629 526 493 196 73 255 309 365 146 9 0 0 0 0 0 0 0 0 0 0 0
0 0 0 0 0 0 0 0 0 0 0 0 0 0 0 0 6 93 416 485 530 602 723 635 507 387 676 507 427 334 270 157 14 154 163 69 0 0 0 0 0 0 0 0 0 0 0 0 0
0 0 0 0 0 0 0 0 0 0 0 0 0 0 0 0 0 57 335 517 428 597 816 803 626 335 312 423 496 522 316 103 91 124 100 0 0 0 0 0 0 0 0 0 0 0 0 0 0
0 0 0 0 0 0 0 0 0 0 0 0 0 0 0 0 0 17 294 456 468 602 869 936 731 507 347 150 93 296 446 135 79 84 31 1 0 0 0 0 0 0 0 0 0 0 0 0 0
0 0 0 0 0 0 0 0 0 0 0 0 0 0 0 0 0 0 69 383 439 542 900 917 874 581 469 426 340 276 281 300 125 136 14 12 5 0 0 0 0 0 0 0 0 0 0 0 0
0 0 0 0 0 0 0 0 0 0 0 0 0 0 0 0 0 0 16 259 271 494 797 945 923 792 627 566 450 395 224 319 180 71 17 0 0 0 0 0 0 0 0 0 0 0 0 0 0
0 0 0 0 0 0 0 0 0 0 0 0 0 0 0 0 0 0 7 67 305 394 613 833 599 566 539 461 313 259 284 290 133 87 113 76 0 0 0 0 0 0 0 0 0 0 0 0 0
0 0 0 0 0 0 0 0 0 0 0 0 0 0 0 0 0 0 0 46 199 410 479 560 471 462 327 330 202 151 219 105 104 126 84 0 0 0 0 0 0 0 0 0 0 0 0 0 0
0 0 0 0 0 0 0 0 0 0 0 0 0 0 0 0 0 0 0 0 34 289 567 672 655 512 281 242 136 21 96 130 134 30 107 0 0 0 0 0 0 0 0 0 0 0 0 0 0
0 0 0 0 0 0 0 0 0 0 0 0 0 0 0 0 0 0 0 0 0 22 442 801 839 565 324 249 1 8 96 73 128 21 9 0 0 0 0 0 0 0 0 0 0 0 0 0 0
0 0 0 0 0 0 0 0 0 0 0 0 0 0 0 0 0 0 0 0 0 0 43 621 770 664 327 109 0 45 93 144 26 0 7 0 0 0 0 0 0 0 0 0 0 0 0 0 0
0 0 0 0 0 0 0 0 0 0 0 0 0 0 0 0 0 0 0 0 0 0 0 319 744 710 428 62 2 16 127 65 0 15 0 0 0 0 0 0 0 0 0 0 0 0 0 0 0
0 0 0 0 0 0 0 0 0 0 0 0 0 0 0 0 0 0 0 0 0 0 0 144 482 403 173 3 5 12 121 61 2 0 0 0 0 0 0 0 0 0 0 0 0 0 0 0 0
0 0 0 0 0 0 0 0 0 0 0 0 0 0 6 17 7 1 4 13 51 54 78 194 358 78 4 10 24 35 103 59 0 0 0 0 0 0 0 0 0 0 0 0 0 0 0 0 0
0 0 0 0 0 0 0 0 0 0 1 38 37 63 54 16 0 0 0 1 69 141 77 154 102 3 11 16 1 24 65 58 29 7 0 0 0 0 0 0 0 0 0 0 0 0 0 0 0
0 0 0 0 0 0 0 0 0 0 0 14 100 39 1 1 3 0 3 2 134 247 63 26 0 0 0 0 8 0 34 60 28 0 0 0 0 0 0 0 0 0 0 0 0 0 0 0 0
CIN
-0 -0 -0 -0 -0 -0 -0 -0 -0 -0 -0 -196 -221 -114 -174 -164 -193 -185 -349 -204 -381 -304 -227 -168 -69 -5 -0 -0 -0 -0 -1 -7 -12 -15 -10 -1 -2 -2 -4 -70 -6 -12 -19 -43 -43 -95 -108 -105 -170
-0 -0 -0 -0 -0 -0 -0 -0 -0 -0 -82 -284 -196 -240 -262 -122 -96 -295 -351 -340 -327 -303 -245 -187 -84 -18 -9 -10 -2 -0 -0 -3 -5 -5 -7 -31 -44 -28 -45 -85 -74 -95 -74 -77 -144 -250 -245 -264 -290
-0 -0 -0 -0 -0 -0 -0 -0 -0 -0 -0 -106 -270 -245 -201 -383 -304 -356 -278 -291 -256 -225 -204 -140 -88 -48 -14 -23 -8 -2 -2 -5 -8 -38 -26 -25 -41 -60 -83 -106 -158 -164 -191 -264 -276 -316 -319 -0 -0
-0 -0 -0 -0 -0 -0 -0 -0 -0 -0 -0 -0 -287 -182 -222 -373 -274 -273 -230 -267 -175 -216 -147 -115 -68 -18 -5 -6 -8 -11 -13 -21 -19 -19 -39 -62 -70 -107 -160 -203 -239 -239 -260 -319 -9 -0 -0 -0 -0
-0 -0 -0 -0 -0 -0 -0 -0 -0 -0 -0 -327 -240 -166 -301 -376 -306 -240 -227 -176 -176 -117 -98 -82 -52 -39 -6 -5 -7 -10 -23 -36 -30 -43 -71 -105 -138 -206 -178 -179 -212 -257 -272 -0 -0 -0 -0 -0 -0
-0 -0 -0 -0 -0 -0 -0 -0 -0 -0 -0 -259 -152 -101 -76 -344 -276 -216 -196 -150 -108 -122 -97 -82 -83 -77 -42 -22 -41 -23 -35 -65 -90 -126 -160 -195 -171 -167 -173 -205 -271 -0 -0 -0 -0 -0 -0 -0 -0
-0 -0 -0 -0 -0 -0 -0 -0 -0 -0 -156 -128 -85 -76 -49 -312 -311 -247 -137 -170 -125 -125 -128 -130 -93 -91 -84 -62 -60 -55 -78 -130 -150 -199 -212 -153 -152 -153 -184 -275 -0 -0 -0 -0 -24 -0 -0 -0 -0
-0 -0 -0 -0 -0 -0 -0 -0 -0 -0 -200 -140 -73 -43 -30 -23 -308 -220 -180 -157 -113 -74 -79 -92 -148 -86 -121 -32 -66 -77 -82 -163 -164 -146 -133 -112 -142 -175 -238 -0 -0 -54 -0 -0 -0 -0 -0 -0 -0
-0 -0 -0 -0 -0 -0 -0 -0 -0 -183 -193 -97 -66 -45 -39 -54 -222 -224 -180 -153 -138 -119 -98 -89 -105 -136 -125 -85 -152 -164 -165 -91 -97 -78 -92 -123 -137 -67 -105 -0 -64 -67 -60 -68 -0 -0 -0 -0 -0
-0 -0 -0 -0 -0 -0 -0 -0 -0 -0 -214 -130 -71 -64 -71 -79 -258 -256 -206 -210 -168 -129 -105 -90 -102 -123 -129 -172 -89 -80 -71 -64 -103 -83 -85 -90 -77 -70 -100 -19 -87 -84 -0 -0 -0 -0 -0 -0 -0
-0 -0 -0 -0 -0 -0 -0 -0 -0 -0 -0 -0 -0 -38 -229 -120 -169 -289 -261 -223 -196 -155 -128 -139 -93 -131 -120 -95 -44 -81 -64 -92 -77 -59 -53 -66 -63 -60 -57 -62 -47 -0 -0 -0 -0 -0 -0 -0 -0
-0 -0 -0 -0 -0 -0 -0 -0 -0 -0 -0 -0 -0 -0 -0 -335 -228 -152 -331 -283 -148 -203 -186 -119 -104 -114 -118 -185 -129 -106 -94 -62 -52 -89 -62 -46 -42 -67 -82 -51 -65 -0 -0 -0 -0 -0 -0 -0 -0
-0 -0 -0 -0 -0 -0 -0 -0 -0 -0 -0 -0 -0 -0 -0 -421 -388 -172 -302 -229 -166 -187 -193 -145 -139 -156 -141 -163 -102 -68 -56 -50 -69 -81 -83 -76 -72 -52 -65 -85 -0 -0 -0 -0 -0 -0 -0 -0 -0
-0 -0 -0 -0 -0 -0 -0 -0 -0 -0 -0 -0 -0 -0 -0 -186 -458 -207 -233 -254 -159 -153 -157 -130 -178 -173 -130 -142 -116 -74 -68 -76 -79 -62 -74 -69 -69 -75 -86 -0 -0 -0 -0 -0 -0 -0 -0 -0 -0
-0 -0 -0 -0 -0 -0 -0 -0 -0 -0 -0 -0 -0 -0 -0 -0 -348 -249 -270 -143 -227 -160 -114 -155 -124 -142 -99 -91 -76 -87 -84 -127 -174 -109 -77 -49 -66 -37 -0 -0 -0 -0 -0 -0 -0 -0 -0 -0 -0
-0 -0 -0 -0 -0 -0 -0 -0 -0 -0 -0 -0 -0 -0 -0 -0 -451 -310 -254 -299 -303 -238 -175 -137 -146 -159 -72 -70 -66 -76 -85 -83 -182 -93 -73 -89 -0 -0 -0 -0 -0 -0 -0 -0 -0 -0 -0 -0 -0
-0 -0 -0 -0 -0 -0 -0 -0 -0 -0 -0 -0 -0 -0 -0 -0 -46 -334 -205 -180 -260 -201 -122 -119 -142 -164 -136 -90 -32 -16 -30 -77 -64 -64 -70 -0 -0 -0 -0 -0 -0 -0 -0 -0 -0 -0 -0 -0 -0
-0 -0 -0 -0 -0 -0 -0 -0 -0 -0 -0 -0 -0 -0 -0 -0 -0 -304 -175 -186 -221 -196 -140 -119 -134 -121 -112 -130 -113 -28 -2 -26 -63 -47 -85 -119 -0 -0 -0 -0 -0 -0 -0 -0 -0 -0 -0 -0 -0
-0 -0 -0 -0 -0 -0 -0 -0 -0 -0 -0 -0 -0 -0 -0 -0 -0 -0 -279 -177 -231 -214 -122 -130 -105 -123 -107 -79 -51 -32 -18 -1 -12 -30 -74 -86 -76 -0 -0 -0 -0 -0 -0 -0 -0 -0 -0 -0 -0
-0 -0 -0 -0 -0 -0 -0 -0 -0 -0 -0 -0 -0 -0 -0 -0 -0 -0 -315 -140 -225 -233 -138 -104 -96 -93 -87 -66 -47 -15 -20 -18 -32 -36 -62 -0 -0 -0 -0 -0 -0 -0 -0 -0 -0 -0 -0 -0 -0
-0 -0 -0 -0 -0 -0 -0 -0 -0 -0 -0 -0 -0 -0 -0 -0 -0 -0 -374 -205 -92 -214 -158 -123 -147 -115 -90 -83 -84 -44 -27 -24 -39 -29 -8 -20 -0 -0 -0 -0 -0 -0 -0 -0 -0 -0 -0 -0 -0
-0 -0 -0 -0 -0 -0 -0 -0 -0 -0 -0 -0 -0 -0 -0 -0 -0 -0 -0 -328 -205 -67 -114 -141 -92 -111 -107 -70 -65 -75 -28 -29 -30 -1 -1 -0 -0 -0 -0 -0 -0 -0 -0 -0 -0 -0 -0 -0 -0
-0 -0 -0 -0 -0 -0 -0 -0 -0 -0 -0 -0 -0 -0 -0 -0 -0 -0 -0 -0 -346 -161 -62 -56 -64 -70 -72 -46 -56 -82 -27 -17 -8 -53 -7 -0 -0 -0 -0 -0 -0 -0 -0 -0 -0 -0 -0 -0 -0
-0 -0 -0 -0 -0 -0 -0 -0 -0 -0 -0 -0 -0 -0 -0 -0 -0 -0 -0 -0 -0 -326 -134 -50 -32 -45 -65 -54 -11 -45 -14 -7 -2 -12 -1 -0 -0 -0 -0 -0 -0 -0 -0 -0 -0 -0 -0 -0 -0
-0 -0 -0 -0 -0 -0 -0 -0 -0 -0 -0 -0 -0 -0 -0 -0 -0 -0 -0 -0 -0 -0 -272 -67 -10 -9 -39 -28 -0 -28 -3 -1 -4 -0 -5 -0 -0 -0 -0 -0 -0 -0 -0 -0 -0 -0 -0 -0 -0
-0 -0 -0 -0 -0 -0 -0 -0 -0 -0 -0 -0 -0 -0 -0 -0 -0 -0 -0 -0 -0 -0 -0 -103 -0 -0 -0 -6 -17 -5 -12 -1 -0 -1 -0 -0 -0 -0 -0 -0 -0 -0 -0 -0 -0 -0 -0 -0 -0
-0 -0 -0 -0 -0 -0 -0 -0 -0 -0 -0 -0 -0 -0 -0 -0 -0 -0 -0 -0 -0 -0 -0 -78 -1 -0 -5 -0 -0 -1 -0 -9 -13 -0 -0 -0 -0 -0 -0 -0 -0 -0 -0 -0 -0 -0 -0 -0 -0
-0 -0 -0 -0 -0 -0 -0 -0 -0 -0 -0 -0 -0 -18 -121 -194 -210 -113 -168 -111 -57 -71 -71 -34 -0 -25 -0 -0 -1 -5 -2 -4 -11 -0 -0 -0 -0 -0 -0 -0 -0 -0 -0 -0 -0 -0 -0 -0 -0
-0 -0 -0 -0 -0 -0 -0 -0 -0 -0 -23 -114 -79 -83 -86 -111 -0 -0 -0 -51 -89 -39 -56 -3 -3 -1 -0 -1 -1 -23 -13 -6 -22 -28 -0 -0 -0 -0 -0 -0 -0 -0 -0 -0 -0 -0 -0 -0 -0
-0 -0 -0 -0 -0 -0 -0 -0 -0 -0 -0 -112 -53 -84 -18 -4 -73 -66 -30 -6 -44 -5 -10 -26 -0 -0 -0 -0 -9 -2 -25 -14 -13 -2 -0 -0 -0 -0 -0 -0 -0 -0 -0 -0 -0 -0 -0 -0 -0
Wind_Speed
nan nan nan nan nan nan nan nan nan nan nan 20 25 24 20 24 24 20 25 19 26 30 31 32 36 37 40 41 42 41 44 46 46 45 44 43 42 41 38 40 38 37 36 36 36 35 35 36 37
nan nan nan nan nan nan nan nan nan nan nan 30 30 25 26 26 33 31 29 30 31 31 32 32 34 35 38 42 46 47 47 47 48 47 46 44 45 43 43 42 41 41 39 38 38 37 36 nan nan
nan nan nan nan nan nan nan nan nan nan nan nan 29 28 29 28 30 34 32 35 36 37 38 38 42 47 49 49 49 49 50 49 46 46 46 45 46 46 45 43 44 43 43 41 41 nan nan nan nan
nan nan nan nan nan nan nan nan nan nan nan nan 26 26 28 32 32 31 31 37 39 41 42 47 52 53 55 58 56 53 51 49 47 47 47 47 46 46 45 46 47 47 47 nan nan nan nan nan nan
nan nan nan nan nan nan nan nan nan nan nan 24 29 25 26 32 36 32 32 32 34 36 37 38 45 47 50 52 54 48 49 49 51 50 48 47 46 46 45 46 48 51 nan nan nan nan nan nan nan
nan nan nan nan nan nan nan nan nan nan nan 20 26 32 27 31 28 28 31 28 28 34 33 32 40 41 40 42 43 47 49 50 47 46 46 45 45 45 44 46 48 nan nan nan nan nan nan nan nan
nan nan nan nan nan nan nan nan nan nan 20 17 28 28 22 23 30 30 27 27 26 25 31 32 32 38 40 37 39 42 42 41 41 41 42 42 46 54 41 nan nan nan nan nan nan nan nan nan nan
nan nan nan nan nan nan nan nan nan nan 18 26 23 26 23 27 30 33 31 30 27 27 27 28 31 34 30 29 33 33 34 35 37 46 51 40 43 47 nan nan nan nan nan nan nan nan nan nan nan
nan nan nan nan nan nan nan nan nan nan 28 20 24 29 27 38 35 34 35 33 29 28 29 28 30 30 32 28 27 31 35 39 41 43 44 43 39 43 nan nan nan nan nan nan nan nan nan nan nan
nan nan nan nan nan nan nan nan nan nan nan 22 23 25 31 43 39 30 32 37 33 30 29 28 28 30 31 30 31 30 33 33 35 38 40 41 41 41 nan nan nan nan nan nan nan nan nan nan nan
nan nan nan nan nan nan nan nan nan nan nan nan nan nan 37 32 34 32 27 32 36 35 32 30 29 30 31 32 34 35 36 38 38 41 40 41 42 45 44 42 nan nan nan nan nan nan nan nan nan
nan nan nan nan nan nan nan nan nan nan nan nan nan nan nan 43 36 37 30 32 35 36 37 36 32 33 35 35 34 37 40 41 42 43 45 45 44 46 44 40 nan nan nan nan nan nan nan nan nan
nan nan nan nan nan nan nan nan nan nan nan nan nan nan nan nan 40 36 39 34 35 36 37 39 38 35 37 38 38 38 39 41 43 43 45 46 47 47 45 nan nan nan nan nan nan nan nan nan nan
nan nan nan nan nan nan nan nan nan nan nan nan nan nan nan nan 40 40 41 38 30 34 38 38 39 39 39 42 42 40 41 43 43 43 45 47 46 47 nan nan nan nan nan nan nan nan nan nan nan
nan nan nan nan nan nan nan nan nan nan nan nan nan nan nan nan nan 35 35 35 34 29 33 35 36 37 42 45 47 45 45 49 nan 48 48 44 44 nan nan nan nan nan nan nan nan nan nan nan nan
nan nan nan nan nan nan nan nan nan nan nan nan nan nan nan nan nan nan 31 30 32 29 31 32 34 40 41 41 42 44 47 48 nan 42 43 nan nan nan nan nan nan nan nan nan nan nan nan nan nan
nan nan nan nan nan nan nan nan nan nan nan nan nan nan nan nan nan nan 30 34 39 38 37 36 38 37 40 44 41 41 44 49 nan 48 46 nan nan nan nan nan nan nan nan nan nan nan nan nan nan
nan nan nan nan nan nan nan nan nan nan nan nan nan nan nan nan nan nan 40 39 39 39 38 40 43 44 45 44 nan 42 40 44 nan nan nan nan nan nan nan nan nan nan nan nan nan nan nan nan nan
nan nan nan nan nan nan nan nan nan nan nan nan nan nan nan nan nan nan nan 48 45 42 43 45 48 49 51 43 46 42 42 43 47 51 nan nan nan nan nan nan nan nan nan nan nan nan nan nan nan
nan nan nan nan nan nan nan nan nan nan nan nan nan nan nan nan nan nan nan 48 46 42 35 37 43 48 50 45 39 43 43 44 45 nan nan nan nan nan nan nan nan nan nan nan nan nan nan nan nan
nan nan nan nan nan nan nan nan nan nan nan nan nan nan nan nan nan nan nan nan 38 39 41 44 45 45 45 45 44 46 43 43 43 nan 47 nan nan nan nan nan nan nan nan nan nan nan nan nan nan
nan nan nan nan nan nan nan nan nan nan nan nan nan nan nan nan nan nan nan nan 41 48 46 43 47 48 45 46 45 51 43 42 40 41 nan nan nan nan nan nan nan nan nan nan nan nan nan nan nan
nan nan nan nan nan nan nan nan nan nan nan nan nan nan nan nan nan nan nan nan nan 50 53 50 52 50 47 48 47 nan nan 42 42 nan 38 nan nan nan nan nan nan nan nan nan nan nan nan nan nan
nan nan nan nan nan nan nan nan nan nan nan nan nan nan nan nan nan nan nan nan nan nan 54 48 51 52 49 52 nan nan nan nan 45 nan nan nan nan nan nan nan nan nan nan nan nan nan nan nan nan
nan nan nan nan nan nan nan nan nan nan nan nan nan nan nan nan nan nan nan nan nan nan nan 60 56 54 52 55 nan nan nan 55 nan nan nan nan nan nan nan nan nan nan nan nan nan nan nan nan nan
nan nan nan nan nan nan nan nan nan nan nan nan nan nan nan nan nan nan nan nan nan nan nan 64 66 61 58 nan nan nan 59 nan nan nan nan nan nan nan nan nan nan nan nan nan nan nan nan nan nan
nan nan nan nan nan nan nan nan nan nan nan nan nan nan nan nan nan nan nan nan nan nan nan 57 61 61 60 nan nan nan 73 nan nan nan nan nan nan nan nan nan nan nan nan nan nan nan nan nan nan
nan nan nan nan nan nan nan nan nan nan nan nan nan nan nan nan nan nan nan nan nan nan nan 52 52 nan nan nan nan nan 40 nan nan nan nan nan nan nan nan nan nan nan nan nan nan nan nan nan nan
nan nan nan nan nan nan nan nan nan nan nan nan nan nan nan nan nan nan nan nan nan 55 nan 57 58 nan nan nan nan nan nan nan nan nan nan nan nan nan nan nan nan nan nan nan nan nan nan nan nan
nan nan nan nan nan nan nan nan nan nan nan nan 55 nan nan nan nan nan nan nan 56 46 nan nan nan nan nan nan nan nan nan nan nan nan nan nan nan nan nan nan nan nan nan nan nan nan nan nan nan
Wind_Direction
nan nan nan nan nan nan nan nan nan nan nan 278 267 273 246 237 252 257 255 267 284 292 287 288 293 295 297 299 300 298 296 297 292 289 289 289 290 290 294 296 289 289 293 293 294 293 284 278 278
nan nan nan nan nan nan nan nan nan nan nan 296 288 276 264 252 244 245 256 264 272 281 284 290 295 292 294 300 299 296 292 291 289 284 283 284 287 286 284 289 289 290 293 295 294 294 287 nan nan
nan nan nan nan nan nan nan nan nan nan nan nan 288 272 278 268 265 275 263 271 273 270 273 278 285 288 290 291 294 291 285 284 286 284 281 280 283 284 286 290 288 290 292 291 289 nan nan nan nan
nan nan nan nan nan nan nan nan nan nan nan nan 289 281 278 268 269 274 274 280 284 282 282 283 283 282 283 285 285 283 282 282 280 279 274 277 279 283 287 288 288 290 290 nan nan nan nan nan nan
nan nan nan nan nan nan nan nan nan nan nan 310 305 301 294 279 281 274 280 287 288 284 283 282 283 281 278 279 280 274 275 276 274 274 268 270 274 278 282 285 286 290 nan nan nan nan nan nan nan
nan nan nan nan nan nan nan nan nan nan nan 307 298 307 305 291 289 282 281 288 289 293 291 291 287 278 269 270 270 270 271 274 273 269 268 269 271 274 273 277 282 nan nan nan nan nan nan nan nan
nan nan nan nan nan nan nan nan nan nan 301 304 299 300 298 308 295 293 284 282 287 288 295 293 286 283 273 269 267 268 271 274 273 269 268 270 267 267 282 nan nan nan nan nan nan nan nan nan nan
nan nan nan nan nan nan nan nan nan nan 307 296 292 303 307 310 302 287 285 283 282 284 288 285 287 284 275 269 273 274 276 274 274 272 263 270 286 278 nan nan nan nan nan nan nan nan nan nan nan
nan nan nan nan nan nan nan nan nan nan 294 286 290 298 286 296 296 296 291 287 281 281 282 285 284 284 280 271 271 272 275 276 276 281 278 268 266 268 nan nan nan nan nan nan nan nan nan nan nan
nan nan nan nan nan nan nan nan nan nan nan 295 283 278 288 299 301 304 308 303 298 290 282 276 283 285 281 273 265 260 265 260 263 267 267 268 270 271 nan nan nan nan nan nan nan nan nan nan nan
nan nan nan nan nan nan nan nan nan nan nan nan nan nan 301 303 307 312 313 311 307 300 292 290 282 285 282 274 270 263 259 258 261 267 268 267 264 265 269 270 nan nan nan nan nan nan nan nan nan
nan nan nan nan nan nan nan nan nan nan nan nan nan nan nan 313 315 313 313 310 306 299 295 293 287 285 281 276 267 267 268 266 265 265 269 269 268 269 270 265 nan nan nan nan nan nan nan nan nan
nan nan nan nan nan nan nan nan nan nan nan nan nan nan nan nan 313 313 311 303 300 297 290 290 288 284 280 276 276 270 268 268 269 268 268 270 273 274 273 nan nan nan nan nan nan nan nan nan nan
nan nan nan nan nan nan nan nan nan nan nan nan nan nan nan nan 312 307 311 307 303 295 292 284 284 282 283 283 279 273 269 268 268 269 270 271 272 273 nan nan nan nan nan nan nan nan nan nan nan
nan nan nan nan nan nan nan nan nan nan nan nan nan nan nan nan nan 317 304 306 301 293 290 290 279 275 277 277 273 268 266 268 nan 268 262 272 271 nan nan nan nan nan nan nan nan nan nan nan nan
nan nan nan nan nan nan nan nan nan nan nan nan nan nan nan nan nan nan 301 293 289 291 293 283 284 284 285 281 278 277 278 272 nan 271 271 nan nan nan nan nan nan nan nan nan nan nan nan nan nan
nan nan nan nan nan nan nan nan nan nan nan nan nan nan nan nan nan nan 289 280 279 281 289 288 283 284 280 279 276 276 274 274 nan 266 263 nan nan nan nan nan nan nan nan nan nan nan nan nan nan
nan nan nan nan nan nan nan nan nan nan nan nan nan nan nan nan nan nan 292 287 283 286 291 287 285 287 281 276 nan 268 269 268 nan nan nan nan nan nan nan nan nan nan nan nan nan nan nan nan nan
nan nan nan nan nan nan nan nan nan nan nan nan nan nan nan nan nan nan nan 299 292 291 299 297 292 293 288 284 280 270 267 270 266 270 nan nan nan nan nan nan nan nan nan nan nan nan nan nan nan
nan nan nan nan nan nan nan nan nan nan nan nan nan nan nan nan nan nan nan 305 308 307 302 297 294 296 291 288 279 273 270 266 268 nan nan nan nan nan nan nan nan nan nan nan nan nan nan nan nan
nan nan nan nan nan nan nan nan nan nan nan nan nan nan nan nan nan nan nan nan 300 303 302 297 291 288 287 289 278 271 268 261 264 nan 274 nan nan nan nan nan nan nan nan nan nan nan nan nan nan
nan nan nan nan nan nan nan nan nan nan nan nan nan nan nan nan nan nan nan nan 292 296 293 287 287 284 285 285 278 284 276 274 266 269 nan nan nan nan nan nan nan nan nan nan nan nan nan nan nan
nan nan nan nan nan nan nan nan nan nan nan nan nan nan nan nan nan nan nan nan nan 282 289 291 286 282 283 281 275 nan nan 263 260 nan 275 nan nan nan nan nan nan nan nan nan nan nan nan nan nan
nan nan nan nan nan nan nan nan nan nan nan nan nan nan nan nan nan nan nan nan nan nan 288 285 281 276 277 275 nan nan nan nan 261 nan nan nan nan nan nan nan nan nan nan nan nan nan nan nan nan
nan nan nan nan nan nan nan nan nan nan nan nan nan nan nan nan nan nan nan nan nan nan nan 286 281 274 271 269 nan nan nan 271 nan nan nan nan nan nan nan nan nan nan nan nan nan nan nan nan nan
nan nan nan nan nan nan nan nan nan nan nan nan nan nan nan nan nan nan nan nan nan nan nan 288 284 275 267 nan nan nan 263 nan nan nan nan nan nan nan nan nan nan nan nan nan nan nan nan nan nan
nan nan nan nan nan nan nan nan nan nan nan nan nan nan nan nan nan nan nan nan nan nan nan 282 276 269 268 nan nan nan 255 nan nan nan nan nan nan nan nan nan nan nan nan nan nan nan nan nan nan
nan nan nan nan nan nan nan nan nan nan nan nan nan nan nan nan nan nan nan nan nan nan nan 270 268 nan nan nan nan nan 239 nan nan nan nan nan nan nan nan nan nan nan nan nan nan nan nan nan nan
nan nan nan nan nan nan nan nan nan nan nan nan nan nan nan nan nan nan nan nan nan 269 nan 269 265 nan nan nan nan nan nan nan nan nan nan nan nan nan nan nan nan nan nan nan nan nan nan nan nan
nan nan nan nan nan nan nan nan nan nan nan nan 288 nan nan nan nan nan nan nan 269 262 nan nan nan nan nan nan nan nan nan nan nan nan nan nan nan nan nan nan nan nan nan nan nan nan nan nan nan